Location: Glion
(46.4330°N, 6.9246°E)
Time: 05:54:13
(UTC+00:00)

SeaSat 1 - Pass Details

Date: 03 March 2021
Orbit: 744 x 747 km, 108.0° (Epoch: 22 April)

Event Time Altitude Azimuth Distance (km) Brightness Sun altitude
Rises 19:33:36 0° 22° (NNE) 3,201 5.7 -23.4°
Reaches altitude 10° 19:35:58 10° 16° (NNE) 2,273 4.9 -23.8°
Maximum altitude 19:40:34 41° 307° (NW) 1,077 3.7 -24.5°
Drops below altitude 10° 19:45:10 10° 238° (WSW) 2,262 5.4 -25.3°
Sets 19:47:31 0° 231° (SW) 3,183 6.1 -25.7°
